Regional Weather Roundup
Issued by NWS Melbourne, FL

Current Version | Previous Version | Text Only | Print | Product List | Glossary On
Versions: 1 2 3 4 5 6 7 8 9 10 11 12 13 14 15 16 17 18 19 20 21 22 23 24 25 26 27 28
000
ASUS42 KMLB 040610
RWRMLB
HOURLY WEATHER ROUNDUP AROUND FLORIDA
NATIONAL WEATHER SERVICE OFFICE MELBOURNE FL
200 AM EDT TUE OCT 04 2022

CITY           SKY/WX    TMP DP  RH WIND       PRES   REMARKS
MELBOURNE      CLEAR     71  65  81 N9        29.96F
FORT PIERCE    CLEAR     68  65  90 NW6       29.94F
ORLANDO INTL   CLEAR     65  61  87 N10       29.99F
DAYTONA BEACH  PTCLDY    65  60  84 NW8       30.00F
VERO BEACH     CLEAR     68  66  93 NW6       29.95F
$$
...ELSEWHERE ACROSS CENTRAL FLORIDA...

CITY           SKY/WX    TMP DP  RH WIND       PRES   REMARKS
PATRICK AFB    CLEAR     73  72  99 N10       29.94F
KSC            PTCLDY    71  59  66 N8        29.95F
CAPE CANAVERAL CLEAR     72  65  78 N10       29.94F
SEBASTIAN      FAIR      68  65  92 NW6       29.96S
ORLANDO EXEC   CLEAR     65  59  81 NW8       30.00F
LEESBURG       CLEAR     62  58  86 N8        30.03F
SANFORD        CLEAR     64  60  87 N9        30.00F
DELAND         CLEAR     62  59  87 NW7       30.02F
WINTER HAVEN   CLEAR     66  61  84 N10       30.01F
KISSIMMEE      CLEAR     66  61  84 N8        30.01F
OKEECHOBEE     PTCLDY    66  66 100 N6        29.96S
TAMPA          PTCLDY    67  59  75 NE12G18   30.01F
$$
...NORTHERN FLORIDA...

CITY           SKY/WX    TMP DP  RH WIND       PRES   REMARKS
PALM COAST     PTCLDY    61  58  91 NW3       30.02S
ST AUGUSTINE   MOCLDY   N/A N/A N/A NW10        N/A
OCALA          CLEAR     58  55  90 N3        30.05F
GAINESVILLE    CLEAR     58  54  86 N5        30.07F
JACKSONVILLE   PTCLDY    61  55  81 N8        30.04F
TALLAHASSEE    CLEAR     60  54  80 CALM      30.08S
$$
...ALONG THE SOUTHEAST COAST TO THE KEYS...

CITY           SKY/WX    TMP DP  RH WIND       PRES   REMARKS
STUART         CLOUDY    72  64  78 MISG      29.95F
WEST PALM BCH  PTCLDY    73  67  81 N5        29.94F
MIAMI          MOCLDY    79  67  66 N3        29.92F
KEY WEST       CLEAR     78  69  73 N5        29.94F
$$
...MARINE REPORTS...

STATION/POSITION TIME  TEMP    WIND        PRES    WAVE   SWELL
                       AIR SEA DIR/SP/G            HT/PER HT/PER
                 (UTC) (F)     (DEG/KT/KT) (MB)    (FT/S) (FT/S)
ST AUGUSTINE FP  0600   71 76   10/ 21/ 23 1016.4F
20NM E CAPE CANA 0550   77 83  360/ 16/ 21 1012.9F   6/ 6   2/11
120 E NEW SMYRNA 0550   74 82   50/ 17/ 21 1013.2F   6/ 7   2/14
TRIDENT PIER     0524           10/  6/  9   N/A
4NM E PORT CANAV 0556      79                N/A     3/ 6
6NM NE FPR INLET 0556      82                N/A     4/ 7
SETTLEMENT PT GB 0600   79      10/  9/ 10 1013.0F
$$



USA.gov is the U.S. government's official web portal to all federal, state and local government web resources and services.